Location: Rimrock Meadows
(47.4808°N, 119.7286°W)
Time: 21:23:30
(UTC-07:00)

Daily predictions for brighter satellites

Satellite Brightness Start Highest point End
(mag) Time Altitude Azimuth Time Altitude Azimuth Time Altitude Azimuth
Cosmos 1634 Rocket 4.5 20:29:54 10° SSW 20:36:12 72° W 20:42:34 10° N
Cosmos 1933 3.3 20:35:03 10° S 20:39:03 65° E 20:43:02 10° NNE
Intercosmos 25 Rocket 3.6 20:37:25 10° S 20:40:57 87° WNW 20:46:10 10° N
SPOT 5 4.5 20:38:19 10° ESE 20:41:24 18° ENE 20:44:23 10° NNE
SeaSat 1 4.3 20:40:19 10° E 20:43:40 19° NE 20:47:01 10° N
Cosmos 1867 4.0 20:39:14 10° NW 20:44:39 64° WSW 20:50:00 10° SSE
SAR-Lupe-1 4.2 20:41:42 10° SSE 20:45:13 60° ENE 20:48:47 10° N
Cosmos 1862 3.9 20:41:38 10° NNW 20:45:38 62° W 20:49:38 10° S
Cosmos 1408 4.3 20:43:23 10° NNW 20:46:48 36° W 20:50:09 10° SSW
ERS-1 Rocket 3.7 20:42:58 10° SE 20:47:33 37° ENE 20:52:09 10° N
Cosmos 2263 Rocket 3.2 20:42:52 10° NW 20:48:11 46° WSW 20:53:28 10° S
Cosmos 2242 Rocket 4.5 20:46:48 10° SSW 20:51:12 55° WNW 20:55:35 10° N
H-2A R/B 3.8 20:48:34 10° E 20:51:20 15° ENE 20:54:05 10° NNE
Cosmos 1825 4.0 20:48:41 10° NNW 20:52:09 33° W 20:55:35 10° SSW
Cosmos 2266 Rocket 4.2 20:46:46 10° N 20:53:00 57° ENE 20:59:15 10° SSE
Cosmos 1782 4.4 20:54:14 10° SE 20:56:57 18° E 20:59:41 10° NE
Cosmos 2221 Rocket 4.3 20:53:36 10° SSE 20:57:33 33° E 21:01:33 10° NNE
Meteor 1-26 Rocket 4.3 20:58:27 10° S 21:04:07 65° E 21:09:55 10° NNE
NOSS 3-1 (C) 4.2 21:01:43 10° S 21:06:34 28° ESE 21:11:50 10° ENE
Cosmos 2322 Rocket 3.6 21:01:44 10° SW 21:07:04 44° NW 21:12:28 10° NNE
H-2A R/B 4.3 21:05:58 10° ENE 21:07:22 11° NE 21:08:46 10° NE
Cosmos 2279 Rocket 4.5 21:03:50 10° SSW 21:10:02 67° WNW 21:16:15 10° N
Cosmos 1908 Rocket 3.6 21:05:51 10° NNW 21:10:12 80° W 21:14:33 10° S
Cosmos 2360 Rocket 2.3 21:07:26 10° SSW 21:13:06 87° WNW 21:18:50 10° NNE
Cosmos 2237 4.3 21:07:34 10° S 21:13:10 60° ESE 21:18:49 10° NNE
USA 229 DEB 3.7 21:07:14 10° SSW 21:14:01 70° SE 21:20:58 10° NE
USA 229 3.7 21:07:21 10° SSW 21:14:08 70° SE 21:21:04 10° NE
Terra 3.9 21:12:09 10° E 21:14:25 13° ENE 21:16:42 10° NNE
CZ-4B DEB 3.3 21:11:55 10° S 21:14:54 54° W 21:17:53 10° NNW
ATLAS 5 CENTAUR R/B 3.7 21:09:58 10° NW 21:15:26 37° WSW 21:21:16 10° S
Resurs 01 Rocket 3.9 21:12:50 10° SSW 21:16:27 24° W 21:20:06 10° NW
Cosmos 1939 Rocket 3.2 21:13:58 10° S 21:17:57 68° WSW 21:21:55 10° NNW
Abrixas rocket 2.1 21:14:50 10° WNW 21:18:08 89° SSW 21:20:39 16° ESE
Helios 1A 4.0 21:14:17 10° S 21:18:22 47° W 21:22:30 10° NNW
COSMOS 2428 2.8 21:17:25 10° S 21:22:56 55° ESE 21:28:30 10° NE
YAOGAN 6 2.5 21:20:29 11° SSE 21:23:59 86° ENE 21:27:35 10° NNW
NOSS 3-1 (A) 4.2 21:19:37 10° SSE 21:24:26 28° ESE 21:29:43 10° ENE
Cosmos 1777 Rocket 4.1 21:19:47 10° NNW 21:25:06 83° WSW 21:30:02 12° SSE
Cosmos 1782 Rocket 3.5 21:20:44 10° N 21:25:08 87° E 21:29:33 10° S
Cosmos 1606 3.7 21:23:21 17° SE 21:25:21 27° E 21:28:35 10° NNE
Sich 1 Rocket 4.3 21:22:10 10° NNW 21:26:35 55° W 21:31:00 10° S
ARGOS 3.6 21:22:46 15° SE 21:26:56 46° ENE 21:32:04 10° N
Cosmos 1844 3.8 21:21:35 10° NNW 21:27:17 70° ENE 21:31:42 17° SE
Okean 1-7 3.1 21:23:26 10° S 21:27:47 61° E 21:32:09 10° NNE
NOAA 11 4.3 21:23:09 13° SSE 21:27:58 61° ENE 21:33:23 10° N
Cosmos 2084 3.3 21:24:56 10° NW 21:28:44 64° NE 21:31:20 20° SE
USA 267 3.4 21:26:04 10° NE 21:32:37 81° NNW 21:39:10 10° WSW
SL-16 R/B 4.2 21:35:09 10° E 21:35:09 10° E 21:35:23 10° E
Atlas Centaur 2 4.2 21:30:56 10° SW 21:35:06 18° S 21:38:05 14° SSE
Cosmos 2322 4.1 21:30:26 10° SW 21:36:08 69° WNW 21:41:51 10° NNE
SPOT 1/Viking Rocket 4.1 21:35:37 19° SE 21:39:02 43° ENE 21:43:57 10° N
SL-16 R/B 4.4 21:34:50 10° WSW 21:39:42 28° NW 21:44:35 10° NNE
Meteor 1-11 Rocket 4.3 21:38:07 10° N 21:43:20 41° ENE 21:46:32 21° SE
ATLAS 3B R/B 4.2 21:37:57 10° NW 21:43:52 28° NNE 21:49:32 10° E
Meteor 1-25 Rocket 4.3 21:39:37 10° NNW 21:45:13 75° W 21:50:28 11° S
SL-08 RB Rocket 4.0 21:43:17 22° SE 21:45:57 49° ENE 21:50:21 10° N
Okean 2 Rocket 3.2 21:41:53 10° NNW 21:46:25 79° W 21:50:07 15° S
USA 245 3.9 21:42:53 19° SSE 21:46:34 62° ENE 21:50:52 10° N
Helios 1B rocket 4.1 21:44:49 10° N 21:48:36 36° WNW 21:52:21 10° SW
Cosmos 1844 Rocket 2.9 21:43:19 10° NNW 21:48:52 66° WSW 21:53:10 17° S
MetOp-A 4.1 21:45:01 16° SSE 21:49:22 89° ENE 21:54:46 10° NNW
Meteor 1-20 Rocket 4.3 21:43:57 10° NNW 21:49:33 78° W 21:54:38 13° S
Cosmos 2237 Rocket 2.8 21:50:19 20° SSE 21:53:29 34° ESE 21:58:34 10° NE
Cosmos 1633 2.8 21:52:01 10° N 21:55:38 52° ENE 21:56:57 33° SE
Cosmos 2278 Rocket 2.3 21:50:18 10° NNW 21:55:58 66° ENE 21:59:16 25° SE
CZ-4C R/B 2.9 21:50:05 10° NW 21:57:05 79° NE 22:02:18 23° SE
MOS 1-B Rocket 3.8 21:53:28 20° SSE 21:57:33 78° ENE 22:03:10 10° NNW
Cosmos 2333 4.2 21:52:42 10° SSW 21:58:27 89° ESE 22:04:17 10° NNE
Cosmos 1536 4.0 21:57:21 10° NNE 22:00:51 28° ENE 22:01:48 25° E
Cosmos 2333 Rocket 2.3 21:56:18 10° S 22:01:52 53° ESE 22:07:29 10° NE
S3M 4.3 22:03:20 24° SSE 22:06:51 49° E 22:12:50 10° NNE
USA 234 3.6 22:04:59 23° SSE 22:09:07 57° SW 22:15:34 10° WNW
Meteor 2-6 Rocket 4.3 22:06:15 13° S 22:11:38 80° E 22:17:35 10° NNE
Cosmos 2219 Rocket 2.1 22:09:06 10° SSW 22:14:42 81° ESE 22:20:22 10° NNE
CARTOSAT-1 4.3 22:13:48 31° ESE 22:15:02 38° ENE 22:19:04 10° N
Aureole 2 Rocket 3.5 22:17:50 23° NE 22:17:50 23° NE 22:19:10 10° NE
SPOT 5 3.0 22:16:20 24° S 22:19:05 63° WSW 22:23:34 10° NNW
SeaSat 1 2.4 22:18:21 34° SE 22:20:34 85° ENE 22:25:33 10° NNW
Cosmos 2151 Rocket 3.8 22:16:51 10° NNW 22:21:18 70° W 22:23:29 29° S
ERS-1 Rocket 4.4 22:21:58 10° SSW 22:26:22 32° W 22:30:51 10° NNW
Cosmos 2298 Rocket 4.1 22:23:45 10° NNW 22:29:06 69° ENE 22:31:06 38° SE
H-2A R/B 1.9 22:27:57 35° SSE 22:30:06 86° WSW 22:35:04 10° NNW
Okean 1 Rocket 3.2 22:25:47 10° N 22:30:12 57° ENE 22:31:13 45° SE
Cosmos 1602 3.7 22:26:38 10° NNW 22:30:29 75° W 22:31:28 47° S
Cosmos 1674 Rocket 3.4 22:29:51 45° SSE 22:31:03 69° E 22:35:21 10° NNE
Cosmos 1782 4.0 22:29:36 12° SW 22:33:00 41° WNW 22:36:49 10° N
NOSS 0 Rocket 3.8 22:28:32 10° SSW 22:34:41 79° ESE 22:40:51 10° NNE
Cosmos 1937 Rocket 3.6 22:30:11 10° NNW 22:35:26 66° ENE 22:37:07 42° SE
Cosmos 1745 Rocket 4.0 22:29:08 10° N 22:35:31 84° E 22:38:38 33° SSE
Landsat 7 3.7 22:34:41 42° SSE 22:36:19 88° ENE 22:41:08 10° NNW
Cosmos 1570 Rocket 4.3 22:33:02 10° SSW 22:38:16 68° WNW 22:43:35 10° NNE
Cosmos 990 Rocket 4.1 22:35:34 10° NNW 22:40:41 62° ENE 22:42:10 43° ESE
ASTEX 1 3.3 22:40:11 42° S 22:41:57 87° E 22:46:57 10° N
H-2A R/B 2.0 22:41:39 54° SSE 22:42:35 82° ENE 22:47:01 10° NNW
Iridium 4 Rocket 2.9 22:39:08 10° N 22:43:18 76° E 22:44:00 59° SSE
Cosmos 1346 Rocket 3.0 22:42:35 40° SSW 22:43:53 68° WNW 22:47:54 10° N
CRYOSAT 2 4.3 22:44:43 49° SSE 22:46:00 73° E 22:50:52 10° N
Cosmos 858 Rocket 4.4 22:42:47 10° NNW 22:48:02 83° WSW 22:49:35 47° SSE
DMSP B5D2-2 4.0 22:43:24 10° NNE 22:48:42 71° ESE 22:50:24 43° S
Cosmos 2369 Rocket 4.1 22:44:45 10° N 22:48:48 20° NE 22:52:03 13° E
Terra 1.7 22:50:17 53° SSE 22:51:26 87° ENE 22:56:14 10° NNW
Cosmos 2285 Rocket 4.3 22:52:59 41° SE 22:54:31 49° ESE 23:00:36 10° NNE
Abrixas rocket 4.2 22:51:50 10° W 22:53:19 20° WSW 22:53:19 20° WSW
Cosmos 2297 3.6 22:48:59 10° NNW 22:54:44 85° ENE 22:56:27 48° SSE
NOSS 3-1 (C) 3.8 22:50:58 10° SW 22:56:50 65° NW 23:03:33 10° NE
Cosmos 1975 Rocket 3.7 22:57:07 41° E 22:57:07 41° E 23:01:08 10° NNE
Cosmos 1300 Rocket 4.1 22:56:29 10° NNW 23:00:43 50° W 23:01:46 40° SW
Cosmos 1763 Rocket 3.8 23:01:12 47° ESE 23:01:23 47° ESE 23:06:27 10° NNE
Meteor 1-27 Rocket 4.0 22:57:55 23° SSW 23:01:24 63° WNW 23:06:56 10° N
Cosmos 2150 Rocket 4.1 22:57:00 10° NNW 23:02:28 74° WSW 23:03:56 49° S
DELTA 2 DEB (DPAF) 4.3 23:02:12 55° E 23:02:38 59° ENE 23:07:04 10° N
Cosmos 1898 Rocket 3.9 22:58:39 10° NNW 23:03:43 54° WSW 23:05:08 41° SSW
Cosmos 1980 4.1 23:05:39 12° SW 23:10:49 62° WNW 23:16:27 10° NNE
Cosmos 1125 Rocket 4.2 23:07:40 10° NNW 23:12:45 43° ENE 23:13:52 38° E
Cosmos 1340 3.8 23:14:27 35° NE 23:14:27 35° NE 23:17:02 10° NNE
NOSS 3-1 (A) 3.8 23:08:51 10° SW 23:14:45 65° NW 23:21:28 10° NE
USA 267 4.4 23:09:07 10° NE 23:15:14 44° NNW 23:21:20 10° W
Spot 4 3.7 23:15:20 70° SE 23:15:52 83° ENE 23:20:40 10° NNW
ATLAS 2AS CENTAUR R/B 3.3 23:14:13 41° SSE 23:15:54 47° ESE 23:23:33 10° NE
Cosmos 1975 3.9 23:13:54 10° N 23:17:08 35° NE 23:17:08 35° NE
SL-16 R/B 2.1 23:16:58 57° SSE 23:17:55 67° ESE 23:23:36 10° NNE
Cosmos 371 Rocket 3.3 23:23:06 64° E 23:23:06 64° E 23:27:49 10° NNE
ATLAS CENTAUR R/B 1.6 23:25:08 64° NE 23:25:08 64° NE 23:28:36 10° NE
Cosmos 1500 4.1 23:21:47 10° N 23:24:50 42° NE 23:24:50 42° NE
Okean 3 3.9 23:27:11 51° W 23:27:34 53° WNW 23:31:41 10° N
Cosmos 1378 Rocket 4.0 23:27:26 50° WSW 23:28:05 56° WNW 23:32:28 10° N
Cosmos 1814 Rocket 3.9 23:27:13 54° SW 23:28:22 80° WNW 23:33:33 10° NNE
CZ-4 R/B 3.8 23:25:06 10° NNE 23:29:56 81° WNW 23:30:39 65° SW
CZ-2C R/B 4.1 23:26:05 10° NE 23:30:16 25° E 23:30:16 25° E
Cosmos 2315 Rocket 3.9 23:31:37 54° S 23:33:09 84° E 23:39:25 10° N
NOSS 2-3 (E) 4.5 23:34:06 45° E 23:34:06 45° E 23:38:36 10° NE
ATLAS 3B R/B 2.6 23:28:48 10° NW 23:35:43 76° NE 23:37:42 48° ESE
CZ-4B R/B 3.3 23:31:15 10° NNE 23:36:03 82° WNW 23:36:30 72° SW
Cosmos 1536 4.4 23:33:51 10° NNW 23:37:14 26° W 23:37:33 26° W
Cosmos 2237 Rocket 3.2 23:32:01 10° SW 23:37:26 44° NW 23:42:53 10° NNE
Cosmos 2278 Rocket 3.9 23:35:19 10° NW 23:39:32 22° W 23:41:08 19° SW
Cosmos 1544 Rocket 3.6 23:35:31 10° N 23:39:37 73° NNE 23:39:37 73° NNE
Geosat 4.0 23:39:33 10° NNE 23:44:37 81° WNW 23:45:24 63° SW
Cosmos 332 Rocket 4.0 23:44:04 58° WSW 23:44:44 66° WNW 23:49:33 10° NNE
CZ-4C R/B 4.1 23:39:15 10° WNW 23:45:18 29° WSW 23:47:30 25° SW
Cosmos 2333 Rocket 3.9 23:41:20 10° WSW 23:46:26 31° NW 23:51:33 10° NNE
Cosmos 841 Rocket 3.3 23:48:14 78° SSW 23:48:35 88° WNW 23:53:49 10° NNE
Okean 1 4.1 23:52:08 47° NNE 23:52:08 47° NNE 23:55:05 10° NNE
CZ-4C R/B 4.5 23:52:43 35° WNW 23:52:43 35° WNW 23:55:14 10° NNW
CZ-2C R/B 3.5 23:52:24 45° ENE 23:52:39 45° ENE 23:57:26 10° N
CZ-4B R/B 4.3 23:58:41 11° NE 23:58:41 11° NE 23:59:09 10° NE
